Location: Observatory
(49.4490°N, 2.6360°W)
Time: 14:11:29
(UTC+01:00)

DIWATA 2B (PO-101) - Pass Details

Date: 18 April 2025
Orbit: 567 x 578 km, 98.1° (Epoch: 15 May)

Event Time Altitude Azimuth Distance (km) Brightness Sun altitude
Rises 04:59:03 0° 147° (SSE) 2,767 ? -11.6°
Reaches altitude 10° 05:01:15 10° 141° (SE) 1,872 ? -11.3°
Maximum altitude 05:05:06 44° 69° (ENE) 802 ? -10.8°
Drops below altitude 10° 05:08:58 10° 358° (N) 1,881 ? -10.2°
Sets 05:11:11 0° 352° (N) 2,782 ? -9.9°
